Change the Weather History Date:

Thursday, July 11, 2013

  Actual Average (KJFX) Record (KJFX)
Temperature  
Mean Temperature 77 °F -  
Max Temperature 86 °F 91 °F 105 °F (2011)
Min Temperature 68 °F 67 °F 51 °F (1963)
Cooling Degree Days 12    
Growing Degree Days 27 (Base 50)    
Moisture  
Dew Point 72 °F    
Average Humidity 91    
Maximum Humidity 100    
Minimum Humidity 70    
Precipitation  
Precipitation 0.45 in - - ()
Sea Level Pressure  
Sea Level Pressure 30.02 in    
Wind  
Wind Speed 3 mph (South)    
Max Wind Speed 10 mph    
Max Gust Speed 16 mph    
Visibility 8 miles    
Events Rain , Thunderstorm    
Averages and records for this station are not official NWS values.
T = Trace of Precipitation, MM = Missing Value Source: NWS Daily Summary

Daily Weather History Graph

Daily Weather History Graph

Search for Another Location

Airport or City:

Trip Planner

Search our weather history database for the weather conditions in past years. The results will help you decide how hot, cold, wet, or windy it might be!

Date:

Astronomy

Jul. 11, 2013 Rise Set
Actual Time 5:47 AM CDT 8:04 PM CDT
Civil Twilight 5:18 AM CDT 8:33 PM CDT
Nautical Twilight 4:43 AM CDT 9:08 PM CDT
Astronomical Twilight 4:04 AM CDT 9:46 PM CDT
Moon 8:54 AM CDT (7/11) 9:56 PM CDT (7/11)
Length of Visible Light 15h 14m
Length of Day
14h 17m
Waxing Crescent, 11% of the Moon is Illuminated
Jul 11
Waxing Crescent
Jul 15
First Quarter
Jul 22
Full
Jul 29
Last Quarter
Aug 6
New

Hourly Weather History & Observations

Time (CDT) Temp. Heat Index Dew Point Humidity Pressure Visibility Wind Dir Wind Speed Gust Speed Precip Events Conditions
12:23 AM 73.4 °F - 73.4 °F 100% 30.01 in 10.0 mi Calm Calm - N/A Thunderstorm Clear
12:38 AM 73.4 °F - 73.4 °F 100% 30.01 in 10.0 mi Calm Calm - N/A   Partly Cloudy
12:47 AM 73.4 °F - 73.4 °F 100% 30.02 in 10.0 mi Variable 6.9 mph - N/A   Scattered Clouds
12:56 AM 73.9 °F - 73.9 °F 100% 30.05 in 9.0 mi ENE 3.5 mph - 0.00 in Rain Light Rain
1:10 AM 73.4 °F - 73.4 °F 100% 30.01 in 10.0 mi NE 3.5 mph - 0.00 in Thunderstorm Mostly Cloudy
1:26 AM 73.4 °F - 73.4 °F 100% 30.03 in 9.0 mi Calm Calm - 0.01 in Rain , Thunderstorm Rain
1:30 AM 73.4 °F - 73.4 °F 100% 30.02 in 2.5 mi Variable 5.8 mph - 0.05 in Rain , Thunderstorm Heavy Thunderstorms and Rain
1:45 AM 73.4 °F - 73.4 °F 100% 30.03 in 10.0 mi ESE 6.9 mph - 0.06 in Thunderstorm Thunderstorm
1:56 AM 72.9 °F - 72.0 °F 97% 30.07 in 10.0 mi Variable 5.8 mph - 0.06 in Thunderstorm Thunderstorm
2:09 AM 71.6 °F - 71.6 °F 100% 30.03 in 1.8 mi Calm Calm - 0.07 in Rain , Thunderstorm Heavy Thunderstorms and Rain
2:24 AM 71.6 °F - 71.6 °F 100% 30.02 in 1.2 mi SSE 9.2 mph - 0.15 in Rain , Thunderstorm Heavy Thunderstorms and Rain
2:30 AM 71.6 °F - 71.6 °F 100% 30.02 in 2.5 mi ESE 5.8 mph - 0.15 in Rain , Thunderstorm Thunderstorms and Rain
2:36 AM 71.6 °F - 71.6 °F 100% 30.03 in 7.0 mi Calm Calm - 0.15 in Rain , Thunderstorm Light Thunderstorms and Rain
2:40 AM 71.6 °F - 71.6 °F 100% 30.03 in 1.5 mi SSW 10.4 mph - 0.23 in Rain , Thunderstorm Heavy Thunderstorms and Rain
2:43 AM 71.6 °F - 71.6 °F 100% 30.04 in 1.0 mi WSW 9.2 mph - 0.25 in Rain , Thunderstorm Heavy Thunderstorms and Rain
2:56 AM 70.9 °F - 70.9 °F 100% 30.06 in 4.0 mi South 5.8 mph - 0.26 in Rain , Thunderstorm Light Thunderstorms and Rain
3:09 AM 71.6 °F - 71.6 °F 100% 30.01 in 10.0 mi Calm Calm - 0.00 in Rain , Thunderstorm Light Thunderstorms and Rain
3:56 AM 70.9 °F - 70.9 °F 100% 30.04 in 10.0 mi Calm Calm - 0.01 in   Scattered Clouds
4:05 AM 71.6 °F - 71.6 °F 100% 29.99 in 10.0 mi SW 3.5 mph - N/A   Scattered Clouds
4:56 AM 70.0 °F - 70.0 °F 100% 30.03 in 10.0 mi Calm Calm - N/A   Scattered Clouds
5:56 AM 68.9 °F - 68.9 °F 100% 30.02 in 10.0 mi Calm Calm - N/A   Clear
6:56 AM 70.0 °F - 70.0 °F 100% 30.04 in 10.0 mi Calm Calm - N/A   Clear
7:56 AM 70.9 °F - 70.0 °F 97% 30.06 in 10.0 mi Calm Calm - N/A   Partly Cloudy
8:27 AM 71.6 °F - 69.8 °F 94% 30.03 in 10.0 mi Calm Calm - N/A   Mostly Cloudy
8:56 AM 72.9 °F - 68.9 °F 87% 30.06 in 10.0 mi SSW 3.5 mph - N/A   Overcast
9:56 AM 75.9 °F - 70.0 °F 82% 30.06 in 10.0 mi SSW 6.9 mph - N/A   Mostly Cloudy
10:47 AM 78.8 °F - 69.8 °F 74% 30.03 in 10.0 mi SSW 9.2 mph - N/A   Scattered Clouds
10:56 AM 79.0 °F - 70.9 °F 76% 30.06 in 10.0 mi South 6.9 mph - N/A   Mostly Cloudy
11:56 AM 79.9 °F - 72.9 °F 79% 30.06 in 10.0 mi Calm Calm - N/A   Mostly Cloudy
12:56 PM 81.9 °F 87.7 °F 73.9 °F 77% 30.05 in 10.0 mi SW 3.5 mph - N/A   Mostly Cloudy
1:43 PM 82.4 °F 89.5 °F 75.2 °F 79% 29.99 in 10.0 mi Calm Calm - N/A   Partly Cloudy
1:56 PM 84.9 °F 93.3 °F 74.8 °F 72% 30.02 in 10.0 mi Variable 3.5 mph - N/A Thunderstorm Scattered Clouds
2:15 PM 84.2 °F 90.9 °F 73.4 °F 70% 29.98 in 10.0 mi Variable 5.8 mph - N/A   Scattered Clouds
2:26 PM 82.4 °F 89.5 °F 75.2 °F 79% 29.99 in 10.0 mi SSW 5.8 mph - N/A   Mostly Cloudy
2:56 PM 86.0 °F 96.0 °F 75.9 °F 72% 30.02 in 10.0 mi Calm Calm - N/A   Mostly Cloudy
3:04 PM 84.2 °F 92.3 °F 75.2 °F 74% 29.98 in 10.0 mi SW 8.1 mph - N/A   Scattered Clouds
3:08 PM 84.2 °F 92.3 °F 75.2 °F 74% 29.98 in 10.0 mi SW 8.1 mph - N/A Thunderstorm Mostly Cloudy
3:45 PM 78.8 °F - 71.6 °F 78% 29.98 in 1.8 mi ESE 10.4 mph 16.1 mph 0.09 in Rain , Thunderstorm Rain
3:47 PM 77.0 °F - 71.6 °F 83% 29.98 in 1.0 mi East 8.1 mph - 0.11 in Rain , Thunderstorm Heavy Thunderstorms and Rain
3:56 PM 74.8 °F - 72.0 °F 91% 30.02 in 1.8 mi Variable 4.6 mph - 0.11 in Rain , Thunderstorm Light Thunderstorms and Rain
3:58 PM 75.2 °F - 71.6 °F 89% 29.99 in 3.0 mi Calm Calm - 0.00 in Rain , Thunderstorm Light Thunderstorms and Rain
4:22 PM 75.2 °F - 73.4 °F 94% 29.97 in 10.0 mi Calm Calm - 0.01 in Rain , Thunderstorm Light Thunderstorms and Rain
4:48 PM 77.0 °F - 73.4 °F 89% 29.97 in 10.0 mi Calm Calm - 0.01 in   Clear
4:56 PM 77.0 °F - 74.8 °F 93% 30.00 in 10.0 mi Calm Calm - 0.01 in   Clear
5:56 PM 81.9 °F 88.9 °F 75.9 °F 82% 29.99 in 10.0 mi Calm Calm - N/A   Partly Cloudy
6:56 PM 77.9 °F - 74.8 °F 90% 30.00 in 10.0 mi Calm Calm - N/A   Clear
7:56 PM 77.0 °F - 73.9 °F 90% 29.98 in 10.0 mi Calm Calm - N/A   Clear
8:56 PM 73.9 °F - 72.9 °F 96% 30.00 in 10.0 mi Calm Calm - N/A   Partly Cloudy
9:56 PM 70.9 °F - 70.9 °F 100% 30.01 in 10.0 mi Calm Calm - N/A   Clear
10:56 PM 70.0 °F - 70.0 °F 100% 30.02 in 8.0 mi Calm Calm - N/A   Scattered Clouds
11:56 PM 70.0 °F - 68.9 °F 96% 30.02 in 10.0 mi North 5.8 mph - N/A   Partly Cloudy